Regional Weather Roundup
Issued by NWS State College, PA

Home | Current Version | Previous Version | Graphics & Text | Print | Product List | Glossary On
Versions: 1 2 3 4 5 6 7 8 9 10 11 12 13 14 15 16 17 18 19 20 21 22 23 24 25 26 27 28 29 30 31 32 33 34 35 36 37 38 39 40 41 42 43 44 45 46 47 48 49 50
921
ASUS41 KCTP 211110
RWRCTP

REGIONAL WEATHER ROUNDUP
NATIONAL WEATHER SERVICE STATE COLLEGE PA
600 AM EST TUE NOV 21 2017

Note: "fair" indicates few or no clouds below 12,000 feet with no
significant weather and/or obstructions to visibility.

* = STATION THAT DOES NOT REPORT PRECIPITATION /E.G. RAIN...SNOW...ETC/
    THUNDER OR FOG.

PAZ002>004-007>009-013>016-020>023-029>032-211200-
WESTERN PENNSYLVANIA

CITY           SKY/WX    TMP DP  RH WIND       PRES   REMARKS
ERIE           CLEAR     43  20  39 S21G39    29.83F
MEADVILLE      CLEAR     36  22  56 S8G16     29.88F
FRANKLIN*      CLEAR     34  21  59 S13       29.91F
NEW CASTLE     FAIR      37  22  54 VRB3      29.94S
BEAVER COUNTY  NOT AVBL
BUTLER*        CLEAR     34  20  56 S7        29.96S
PITTSBURGH INT PTCLDY    36  20  52 S5        29.95S
PITTSBURGH     CLEAR     36  17  46 S9        29.96S
INDIANA*       CLEAR     28  23  80 CALM      30.01S
LATROBE        CLEAR     36  18  48 SW9       30.00R
WASHINGTON CO* CLEAR     42  17  36 SW12G18   30.00S
$$

PAZ004>006-010>012-017>019-024>028-033>037-041-042-045-046-049>053-211200-
CENTRAL PENNSYLVANIA

CITY           SKY/WX    TMP DP  RH WIND       PRES   REMARKS
BRADFORD       CLEAR     36  20  52 S7        29.90S
DUBOIS         CLEAR     39  16  39 SW13      29.93S
CLEARFIELD     CLEAR     25  22  88 CALM      29.98S
JOHNSTOWN      CLEAR     40  13  33 S12       29.97S
ALTOONA        CLEAR     34  20  56 W3        30.00F
STATE COLLEGE  CLEAR     28  21  74 CALM      30.01R
WILLIAMSPORT   CLEAR     26  24  92 CALM      30.03F
SELINSGROVE    CLEAR     25  24  96 CALM      30.07R
FT INDIANTOWN  CLEAR     26  24  94 CALM      30.09R
CAPITAL CITY   CLEAR     29  23  78 SW3       30.09R
HARRISBURG     PTCLDY    30  25  81 CALM      30.09R
YORK           CLEAR     27  23  85 CALM      30.08R
$$

PAZ038>040-043-044-047-048-054-055-060>062-067>071-211200-
EASTERN PENNSYLVANIA

CITY           SKY/WX    TMP DP  RH WIND       PRES   REMARKS
SCRANTON       CLEAR     32  23  69 CALM      30.04F
MOUNT POCONO   CLEAR     34  20  56 SW9       30.01F
ALLENTOWN      CLEAR     27  22  81 CALM      30.09F
QUAKERTOWN*    SUNNY     28  25  86 CALM      30.10F
READING        CLEAR     36  27  69 S5        30.09F
LANCASTER      CLEAR     36  26  67 CALM      30.10S
COATESVILLE    SUNNY     36  28  75 CALM      30.11F
POTTSTOWN      CLEAR     34  29  82 SE3       30.12F
BLUE BELL      CLEAR     32  30  93 CALM      30.13F
DOYLESTOWN     CLEAR     34  28  79 S5        30.10F
WILLOW GROVE   NOT AVBL
NORTH PHILA    CLEAR     39  30  70 CALM      30.15R
PHILADELPHIA   PTCLDY    42  31  64 S8        30.15R
$$




USA.gov is the U.S. government's official web portal to all federal, state and local government web resources and services.